Date,TemperatureHighF,TemperatureAvgF,TemperatureLowF,DewpointHighF,DewpointAvgF,DewpointLowF,HumidityHigh,HumidityAvg,HumidityLow,PressureMaxIn,PressureMinIn,WindSpeedMaxMPH,WindSpeedAvgMPH,GustSpeedMaxMPH,PrecipitationSumIn
2013-1-7,61,61,60,52,44,42,73,55,52,30.27,30.24,21,6,21,0.02
2013-1-8,80,69,60,75,58,41,85,70,48,30.35,30.21,14,4,14,0.00
2013-1-9,81,72,67,76,62,44,85,70,45,30.43,30.27,15,4,15,0.00
2013-1-10,79,72,67,74,62,47,86,72,49,30.42,30.35,15,5,19,0.00
2013-1-11,80,71,64,75,62,47,86,74,53,30.38,30.27,15,4,20,0.00
2013-1-12,80,70,65,75,60,48,85,72,54,30.32,30.19,12,4,16,0.00
2013-1-13,78,70,65,73,63,54,85,77,65,30.31,30.16,13,4,15,0.00
2013-1-14,79,70,62,74,62,52,86,78,64,30.33,30.21,11,3,14,0.00
2013-1-15,80,69,62,75,61,51,86,76,65,30.29,30.16,12,3,16,0.00
2013-1-16,71,66,64,64,53,47,79,63,54,30.23,30.14,9,2,9,0.00
2013-1-23,67,63,51,61,58,45,84,83,80,30.45,30.35,16,7,16,0.00
2013-1-24,70,62,46,65,56,38,85,81,64,30.45,30.33,14,5,14,0.00
2013-1-25,71,56,53,66,42,36,100,62,51,30.43,30.31,8,1,8,0.00
2013-1-26,68,68,68,63,63,63,83,83,83,30.40,30.40,9,9,9,0.00
2013-1-27,58,56,55,48,43,37,69,60,51,30.33,30.31,0,0,1,0.00
2013-1-28,78,70,63,74,63,54,86,77,67,30.45,30.36,11,6,13,0.00
2013-1-29,78,71,62,78,66,44,100,85,48,30.34,30.21,12,6,15,0.00
2013-1-30,77,74,66,72,68,56,85,83,71,30.15,30.03,25,10,25,0.00
2013-1-31,66,56,48,60,48,42,82,77,56,30.27,30.05,24,8,30,0.15
2013-2-1,65,57,44,60,51,38,84,82,80,30.45,30.27,18,6,18,0.00
2013-2-2,71,53,45,66,48,39,85,81,79,30.39,30.22,10,4,13,0.00
2013-2-3,66,52,43,61,44,32,83,76,64,30.31,30.16,13,2,15,0.00
2013-2-4,67,55,46,62,48,38,84,80,71,30.24,30.12,10,2,12,0.00
2013-2-5,74,60,47,69,55,40,85,82,76,30.22,30.05,13,3,14,0.00
2013-2-6,75,66,61,70,61,52,85,82,73,30.24,30.11,10,3,10,0.00
2013-2-7,75,69,63,70,62,50,85,78,62,30.18,30.13,17,7,17,0.00
2013-2-20,75,64,58,70,59,50,84,82,79,30.21,30.13,16,4,16,0.00
2013-2-21,79,66,57,74,60,46,85,80,68,30.25,30.10,18,4,18,0.00
2013-2-22,80,70,64,75,63,48,85,78,62,30.23,30.10,22,5,22,0.00
2013-2-23,76,70,67,70,61,44,83,71,59,30.14,30.04,25,6,26,0.00
2013-2-24,76,70,67,75,57,38,100,66,37,30.11,29.99,19,4,20,0.00
2013-2-25,81,72,67,80,66,41,100,83,42,30.03,29.90,15,5,20,0.00
2013-2-26,74,70,66,72,63,50,96,78,57,30.00,29.82,21,7,25,0.37
2013-2-27,67,63,58,62,57,52,83,82,79,30.11,29.98,16,7,19,0.00
2013-2-28,67,61,56,62,55,50,83,82,79,30.13,30.01,13,5,17,0.00
2013-3-19,82,71,63,77,63,47,100,77,56,30.18,30.05,14,5,18,0.00
2013-3-20,70,64,58,63,51,41,81,63,54,30.07,29.94,16,5,27,0.16
2013-3-21,65,57,48,60,50,41,84,77,53,30.11,29.95,16,6,21,0.01
2013-3-22,74,60,46,68,51,36,85,74,45,30.12,29.95,15,3,17,1.18
2013-3-23,78,70,64,71,52,41,79,54,42,30.07,29.94,17,6,22,1.18
2013-3-24,76,71,67,66,54,46,72,54,43,29.95,29.79,31,8,32,0.00
2013-3-25,67,63,59,57,54,51,82,73,57,30.01,29.86,24,10,30,0.00
2013-3-26,53,51,47,47,45,41,81,81,80,30.30,30.21,32,11,32,0.00
2013-3-27,53,47,40,47,41,34,81,80,78,30.41,30.25,20,6,22,0.00
2013-3-28,68,54,43,63,48,36,84,80,71,30.41,30.26,16,5,18,0.00
2013-3-29,72,58,47,67,51,37,85,79,68,30.45,30.28,15,4,16,0.00
2013-3-30,73,62,49,68,55,41,85,80,71,30.38,30.24,17,4,19,0.00
2013-3-31,76,66,57,72,60,47,86,80,65,30.29,30.11,18,4,20,0.00
2013-4-1,77,70,65,72,61,47,85,74,50,30.19,30.06,19,6,23,0.00
2013-4-2,81,68,63,76,58,43,86,70,47,30.26,30.10,13,3,15,0.00
2013-4-3,81,71,63,76,61,46,85,72,54,30.19,30.09,17,6,20,0.06
2013-4-4,72,68,65,66,54,45,82,62,48,30.15,29.98,15,6,20,0.47
2013-4-5,68,64,60,63,53,44,83,67,48,30.09,29.91,19,7,26,0.19
2013-4-6,72,62,54,67,55,46,85,78,67,30.22,30.08,16,6,20,0.00
2013-4-7,63,61,59,56,49,43,77,66,57,30.22,30.13,8,4,14,0.00
2013-4-10,76,74,72,71,68,66,85,84,82,30.14,30.11,9,1,9,0.00
2013-4-11,85,76,70,80,66,54,86,73,55,30.13,29.95,20,8,23,0.02
2013-4-12,76,74,69,66,61,53,75,64,50,30.07,29.90,23,7,28,0.01
2013-4-13,85,73,67,79,64,50,86,74,55,30.17,30.00,13,4,16,0.00
2013-4-14,82,73,66,77,64,56,85,74,61,30.12,30.03,30,8,34,0.03
2013-4-15,87,74,67,83,68,58,87,82,74,30.21,30.03,13,4,18,0.00
2013-4-16,91,77,68,87,69,49,87,77,50,30.31,30.14,15,5,23,0.00
2013-4-17,84,76,67,80,69,51,87,80,56,30.30,30.18,16,6,20,0.00
2013-4-18,85,76,70,81,70,60,87,80,70,30.22,30.12,17,6,22,0.00
2013-4-19,85,77,72,80,68,55,86,73,55,30.19,30.08,19,8,28,0.00
2013-4-20,75,67,59,65,58,48,83,73,58,30.24,30.10,15,7,24,0.02
2013-4-21,78,67,59,73,57,48,85,70,51,30.29,30.16,15,6,19,0.07
2013-4-22,79,70,65,74,55,39,85,62,36,30.23,30.10,15,6,22,0.31
2013-4-23,82,71,64,77,63,50,85,76,60,30.27,30.13,15,7,21,0.00
2013-4-24,83,70,63,78,63,51,86,78,64,30.30,30.17,15,6,19,0.00
2013-4-25,83,72,63,78,63,46,85,74,50,30.41,30.21,17,5,19,0.00
2013-4-26,85,74,65,81,67,54,87,80,65,30.43,30.26,15,4,19,0.00
2013-4-27,74,71,68,68,61,52,82,72,57,30.35,30.27,13,6,18,0.00
2013-4-30,89,78,70,84,71,54,87,79,57,30.14,30.08,16,5,16,0.02
2013-5-1,73,70,67,60,53,45,66,55,46,30.13,30.04,19,6,19,0.83
2013-5-2,80,70,64,74,56,43,83,62,45,30.09,29.95,17,4,17,0.13
2013-5-3,76,69,66,69,51,43,80,53,42,29.97,29.88,14,2,14,0.28
2013-6-5,82,76,74,82,72,64,100,89,66,30.17,30.02,13,8,19,0.10
2013-6-6,79,76,72,79,73,40,100,93,29,30.03,29.81,27,13,27,3.44
2013-6-7,82,80,78,82,80,78,100,100,100,30.11,30.08,12,4,12,0.00
2013-6-8,79,73,72,75,70,51,100,93,48,30.23,30.11,13,5,19,0.51
2013-6-9,80,74,72,75,73,51,100,98,65,30.23,30.18,13,4,13,0.07
2013-6-10,86,81,75,86,78,59,100,92,55,30.28,30.19,14,6,15,0.00
2013-6-11,89,81,73,89,78,63,100,92,62,30.29,30.17,10,2,10,0.99
2013-6-12,88,77,72,88,74,58,100,90,61,30.30,30.18,13,2,13,0.22
2013-6-13,85,82,80,85,82,80,100,100,100,30.25,30.09,13,7,13,0.00
2013-6-14,83,81,80,83,80,76,100,99,85,30.12,30.07,13,8,14,0.00
2013-6-15,79,78,78,78,76,68,100,94,71,30.19,30.07,7,4,7,0.00
2013-6-16,78,78,77,78,75,66,100,91,67,30.22,30.19,6,5,6,0.00
2013-6-17,87,81,75,87,78,67,100,91,72,30.27,30.16,10,2,10,0.00
2013-6-18,86,81,75,86,76,65,100,85,71,30.25,30.16,10,3,10,0.00
2013-6-19,87,86,84,82,81,79,86,85,84,30.23,30.21,10,8,10,0.00
2013-6-20,88,81,73,42,5,-28,30,10,1,30.31,30.22,12,4,16,0.56
2013-6-21,85,77,73,85,60,-32,100,83,1,30.31,30.22,9,2,12,0.60
2013-6-22,81,79,75,72,70,67,87,74,64,30.27,30.19,10,4,10,0.05
2013-6-23,76,73,72,67,59,38,77,63,29,30.27,30.22,6,2,9,0.07
2013-6-24,88,80,73,84,73,57,87,80,53,30.38,30.23,13,6,19,0.67
2013-6-25,89,80,72,79,50,-32,86,47,1,30.34,30.19,17,4,22,0.91
2013-6-26,87,78,72,82,63,-31,86,66,1,30.29,30.13,17,3,20,1.41
2013-6-27,89,80,72,84,60,-30,86,68,1,30.24,30.11,13,3,16,0.00
2013-6-28,85,80,75,79,-6,-30,84,10,1,30.15,30.03,14,3,17,0.00
2013-6-29,83,78,72,76,23,-30,83,36,1,30.05,29.96,22,4,29,0.52
2013-6-30,85,78,75,81,64,-28,97,70,1,30.03,29.94,19,4,23,0.19
2013-7-1,78,74,71,77,54,-34,100,67,1,30.11,29.95,13,5,19,1.95
2013-7-2,86,76,71,81,64,1,86,67,8,30.24,30.07,19,6,20,1.70
2013-7-3,86,76,70,81,63,56,86,66,51,30.26,30.18,16,6,28,0.98
2013-7-4,88,77,71,82,69,58,100,78,61,30.30,30.19,16,6,22,0.49
2013-7-5,86,76,71,81,68,45,100,77,37,30.31,30.19,16,4,26,0.51
2013-7-6,84,76,74,79,67,53,100,73,53,30.29,30.18,16,5,17,0.16
2013-7-7,90,79,75,85,72,62,100,78,64,30.30,30.18,16,5,28,0.35
2013-7-8,92,79,72,92,74,58,100,84,56,30.36,30.22,13,4,25,0.47
2013-7-9,91,79,74,91,74,54,100,84,48,30.37,30.23,12,3,15,0.00
2013-7-10,86,79,73,82,70,52,100,76,48,30.28,30.13,14,5,15,0.01
2013-7-11,85,77,72,85,68,50,100,74,43,30.19,30.09,15,3,20,0.07
2013-7-12,86,78,73,83,69,54,100,77,50,30.11,30.04,12,2,15,0.15
2013-7-13,84,76,72,79,62,50,100,65,45,30.15,30.03,11,2,16,0.36
2013-7-14,85,77,73,84,64,53,100,66,48,30.23,30.08,12,5,18,0.24
2013-7-15,87,77,73,82,68,55,100,75,53,30.30,30.17,13,6,16,0.15
2013-7-16,88,77,73,83,71,53,100,82,48,30.33,30.21,17,7,27,0.02
2013-7-17,87,76,72,82,65,48,100,74,41,30.33,30.23,15,5,16,0.01